Location: Rayville (historical)
(39.9992°N, 99.6815°W)
Time: 18:52:40
(UTC+00:00)

STARLINK-39 - Pass Details

Date: 18 February 2020
Orbit: 529 x 530 km, 53.0° (Epoch: 06 April)

Event Time Altitude Azimuth Distance (km) Brightness Sun altitude
Rises 01:34:57 0° 224° (SW) 2,654 7.9 -15.6°
Reaches altitude 10° 01:37:09 10° 222° (SW) 1,768 6.8 -16.1°
Maximum altitude 01:41:09 74° 139° (SE) 555 3.4 -16.8°
Enters shadow 01:42:48 34° 60° (ENE) 888 4.2 -17.1°
